Weather History for KTUS - September, 2014

Change the Weather History Date:

Wednesday, September 17, 2014

  Actual Average Record
Temperature  
Mean Temperature 78 °F 82 °F  
Max Temperature 82 °F 95 °F 105 °F (1956)
Min Temperature 73 °F 69 °F 52 °F (1915)
Degree Days  
Heating Degree Days 0 0  
Month to date heating degree days 0 0  
Since 1 July heating degree days 0 0  
Cooling Degree Days 13 17  
Month to date cooling degree days 318 314  
Year to date cooling degree days 3009 2724  
Growing Degree Days 28 (Base 50)    
Moisture  
Dew Point 67 °F    
Average Humidity 72    
Maximum Humidity 87    
Minimum Humidity 57    
Precipitation  
Precipitation 0.11 in 0.04 in 1.33 in (1991)
Month to date precipitation 2.70 0.82  
Year to date precipitation 6.63 8.73  
Sea Level Pressure  
Sea Level Pressure 29.76 in    
Wind  
Wind Speed 9 mph (ESE)    
Max Wind Speed 22 mph    
Max Gust Speed 25 mph    
Visibility 10 miles    
Events Rain    
T = Trace of Precipitation, MM = Missing Value Source: NWS Daily Summary

Daily Weather History Graph

Daily Weather History Graph

Search for Another Location

Airport or City:

Trip Planner

Search our weather history database for the weather conditions in past years. The results will help you decide how hot, cold, wet, or windy it might be!

Date:

Astronomy

Sep. 17, 2014 Rise Set
Actual Time 6:08 AM MST 6:27 PM MST
Civil Twilight 5:44 AM MST 6:51 PM MST
Nautical Twilight 5:15 AM MST 7:20 PM MST
Astronomical Twilight 4:46 AM MST 7:49 PM MST
Moon 12:26 AM MST (9/17) 2:25 PM MST (9/17)
Length of Visible Light 13h 07m
Length of Day
12h 18m
Waning Crescent, 34% of the Moon is Illuminated
Sep 17
Waning Crescent
Sep 23
New
Oct 1
First Quarter
Oct 8
Full
Oct 15
Last Quarter

Hourly Weather History & Observations

Time (MST) Temp. Heat Index Dew Point Humidity Pressure Visibility Wind Dir Wind Speed Gust Speed Precip Events Conditions
12:53 AM 75.0 °F - 68.0 °F 79% 29.79 in 10.0 mi SE 5.8 mph - 0.00 in Rain Light Rain
1:53 AM 73.9 °F - 68.0 °F 82% 29.78 in 10.0 mi ESE 3.5 mph - 0.01 in Rain Light Rain
2:53 AM 73.0 °F - 69.1 °F 87% 29.78 in 10.0 mi South 9.2 mph - 0.01 in   Mostly Cloudy
3:53 AM 75.0 °F - 66.9 °F 76% 29.77 in 10.0 mi SE 10.4 mph - 0.01 in   Mostly Cloudy
4:53 AM 75.0 °F - 68.0 °F 79% 29.76 in 10.0 mi ENE 5.8 mph - N/A   Mostly Cloudy
5:53 AM 75.9 °F - 66.9 °F 74% 29.77 in 10.0 mi East 3.5 mph - N/A   Mostly Cloudy
6:53 AM 75.0 °F - 68.0 °F 79% 29.78 in 10.0 mi Calm Calm - N/A   Mostly Cloudy
7:53 AM 73.9 °F - 69.1 °F 85% 29.79 in 7.0 mi Calm Calm - 0.01 in Rain Light Rain
8:53 AM 73.9 °F - 69.1 °F 85% 29.80 in 10.0 mi ESE 6.9 mph - 0.05 in Rain Light Rain
9:53 AM 75.9 °F - 69.1 °F 79% 29.81 in 10.0 mi ESE 8.1 mph - 0.01 in Rain Light Rain
10:53 AM 75.2 °F - 69.8 °F 83% 29.93 in 10.0 mi East 11.5 mph - N/A Rain Light Rain
11:53 AM 77.0 °F - 68.0 °F 74% 29.79 in 10.0 mi East 9.2 mph - 0.00 in Rain Light Rain
12:53 PM 79.0 °F - 69.1 °F 72% 29.76 in 10.0 mi ENE 10.4 mph - 0.00 in   Overcast
1:53 PM 81.0 °F 83.3 °F 66.9 °F 62% 29.73 in 10.0 mi East 10.4 mph - N/A   Clear
2:53 PM 82.0 °F 84.1 °F 66.0 °F 58% 29.71 in 10.0 mi ESE 15.0 mph - N/A   Mostly Cloudy
3:53 PM 81.0 °F 83.0 °F 66.0 °F 60% 29.71 in 10.0 mi ESE 12.7 mph - 0.00 in   Overcast
4:53 PM 77.0 °F - 66.9 °F 71% 29.71 in 10.0 mi ESE 15.0 mph - N/A   Mostly Cloudy
5:53 PM 78.1 °F - 63.0 °F 60% 29.70 in 10.0 mi ESE 16.1 mph - N/A   Scattered Clouds
6:53 PM 77.0 °F - 63.0 °F 62% 29.70 in 10.0 mi ESE 17.3 mph - N/A   Clear
7:53 PM 77.0 °F - 64.0 °F 64% 29.71 in 10.0 mi ESE 11.5 mph - N/A   Overcast
8:53 PM 77.0 °F - 64.0 °F 64% 29.71 in 10.0 mi East 8.1 mph - N/A   Overcast
9:53 PM 75.9 °F - 64.0 °F 67% 29.73 in 10.0 mi East 12.7 mph - N/A   Overcast
10:53 PM 75.0 °F - 64.9 °F 71% 29.72 in 10.0 mi ESE 6.9 mph - N/A   Overcast
11:53 PM 75.0 °F - 66.0 °F 73% 29.72 in 10.0 mi ESE 4.6 mph - N/A   Overcast